Погода в Савкино

Россия / Новосибирская область     53°54′11″N   77°54′15″E
темп.,
°C
ветер,
м/с
пор.,
м/с
влажн.,
%
обл.,
%
осадки,
мм/ч
давл.,
гПа
погр.,
м
22 апреля, чт
чт2201:00−2с6128470 0.0 1031525
04:00−2ссв6108417 0.0 1033489
07:00−3ссв510865 0.0 1037432
10:000ссв686748 0.0 1039778
13:00+4св674587 0.0 10411830
16:00+5св6737100 0.0 10422166
19:00+5св663973 0.0 10431853
22:00+1св38611 0.0 1045176
23 апреля, пт
пт2301:000св37710 0.0 1045168
04:00−1св35771 0.0 1045120
07:00−1св34815 0.0 1046117
10:00+3св35575 0.0 1047791
13:00+5св44445 0.0 10451431
16:00+7св44395 0.0 10441644
19:00+7св444049 0.0 10431749
22:00+4св33575 0.0 104336
24 апреля, сб
сб2401:00+2всв34675 0.0 104270
04:000всв33775 0.0 104140
07:000всв22775 0.0 104028
10:00+4всв22555 0.0 1039541
13:00+7ссв21435 0.0 10381442
16:00+8ссв22375 0.0 10361619
19:00+9всв22367 0.0 10341640
22:00+6в224980 0.0 103521
25 апреля, вс
вс2501:00+4вюв3455100 0.0 103358
04:00+3юв3360100 0.0 103336
07:00+3юв3463100 0.0 103283
10:00+6юв4549100 0.0 1032417
13:00+9ююв5638100 0.0 10311376
16:00+11ююв5632100 0.0 10291656
19:00+10юв5633100 0.0 10281615
22:00+7вюв4947100 0.0 1027219
26 апреля, пн
пн2601:00+6вюв51157100 0.0 1026233
04:00+5юв5115662 0.0 1025248
07:00+4юв51364100 0.0 1024267
10:00+8юв7105176 0.0 1024493
13:00+13юв67365 0.0 1023966
16:00+15ююв56296 0.0 10221376
19:00+16ююв453270 0.0 10221134
22:00+11юв4847100 0.0 1022118